Flag for Norway Weather past 2 weeks in Kirkenes, Norway

Now
59 °F

Cool.


Feels Like: 58 °F
Forecast: 50 / 62 °F
Wind: 8 mph from South

Location: Kirkenes Lufthavn

Current Time: Aug 30, 2015 at 2:53:25 PM

Latest Report: Aug 30, 2015 at 2:00 PM


Visibility: N/A

Pressure: 29.83 "Hg

Humidity: 64%

Dew point: 47 °F

Location of KirkenesLocation

Historic Weather in Kirkenes — Graph

°F

Kirkenes temperature yesterday

Maximum temperature yesterday: 57 °F (at 11:00 AM)
Minimum temperature yesterday: 43 °F (at 3:00 AM)
Average temperature yesterday: 51 °F

Past Weeks' High & Low Weather Summary

 TemperatureHumidityPressure
High74 °F (Aug 19, 5:00 PM)100% (Aug 20, 7:00 AM)30.41 "Hg (Aug 20, 7:00 AM)
Low43 °F (Aug 29, 3:00 AM)38% (Aug 18, 4:00 PM)29.72 "Hg (Aug 29, 10:00 AM)
Average55 °F76%30.15 "Hg
* Reported Aug 15 1:00 PM — Aug 30 1:00 PM, Kirkenes, Weather by CustomWeather, © 2015

Note: Actual official high and low records may vary slightly from our data, if they occured in-between our weather recording intervals... More about our weather records

Advertising

Kirkenes weather history for previous 24 hours

 ConditionsComfort  
Time TempWeatherWind HumidityBarometerVisibility
1:00 PM
Sun, Aug 30
59 °FCool.8 mph65%29.85 "HgN/A
12:00 PM58 °FCool.8 mph65%29.84 "HgN/A
11:00 AM57 °FCool.7 mph69%29.84 "HgN/A
10:00 AM55 °FCool.7 mph75%29.85 "HgN/A
9:00 AM53 °FCool.6 mph80%29.84 "HgN/A
8:00 AM51 °FCool.6 mph84%29.84 "HgN/A
7:00 AM51 °FCool.8 mph85%29.83 "HgN/A
6:00 AM51 °FCool.8 mph84%29.83 "HgN/A
5:00 AM50 °FCool.8 mph83%29.82 "HgN/A
4:00 AM50 °FCool.5 mph81%29.82 "HgN/A
3:00 AM50 °FCool.7 mph79%29.81 "HgN/A
2:00 AM50 °FCool.9 mph77%29.80 "HgN/A
1:00 AM51 °FCool.8 mph76%29.79 "HgN/A
12:00 AM51 °FCool.7 mph74%29.79 "HgN/A
10:00 PM
Sat, Aug 29
52 °FCool.3 mph68%29.77 "HgN/A
9:00 PM52 °FCool.5 mph66%29.77 "HgN/A
8:00 PM53 °FCool.5 mph63%29.77 "HgN/A
7:00 PM53 °FCool.5 mph60%29.76 "HgN/A
6:00 PM55 °FCool.6 mph57%29.75 "HgN/A
5:00 PM55 °FCool.5 mph57%29.74 "HgN/A
4:00 PM56 °FRefreshingly cool.6 mph56%29.73 "HgN/A
2:00 PM57 °FRefreshingly cool.7 mph59%29.72 "HgN/A
Weather by CustomWeather, © 2015

See weather overviewHow to use our weather pages